Time,TemperatureF,DewpointF,PressureIn,WindDirection,WindDirectionDegrees,WindSpeedMPH,WindSpeedGustMPH,Humidity,HourlyPrecipIn,Conditions,Clouds,dailyrainin,SoftwareType,DateUTC
2013-01-12 00:00:00,55.1,54.8,30.24,SE,144,1.0,1.0,99,0.00,,,0.17,Wunderground v.1.15,2013-01-12 05:00:00,
2013-01-12 00:02:00,55.1,54.8,30.23,SE,143,0.0,1.0,99,0.00,,,0.17,Wunderground v.1.15,2013-01-12 05:02:00,
2013-01-12 00:04:00,55.2,54.9,30.23,SW,214,0.0,1.0,99,0.00,,,0.00,Wunderground v.1.15,2013-01-12 05:04:00,
2013-01-12 00:10:00,55.3,55.0,30.23,SW,222,1.0,1.0,99,0.00,,,0.00,Wunderground v.1.15,2013-01-12 05:10:00,
2013-01-12 00:16:00,55.3,55.0,30.23,SW,215,1.0,1.0,99,0.00,,,0.00,Wunderground v.1.15,2013-01-12 05:16:00,
2013-01-12 00:22:00,55.4,55.1,30.23,SSE,162,1.0,1.0,99,0.00,,,0.00,Wunderground v.1.15,2013-01-12 05:22:00,
2013-01-12 00:24:00,55.4,55.1,30.23,SSE,162,1.0,1.0,99,0.00,,,0.00,Wunderground v.1.15,2013-01-12 05:24:00,
2013-01-12 00:30:00,55.4,55.1,30.23,SSW,207,1.0,2.0,99,0.00,,,0.00,Wunderground v.1.15,2013-01-12 05:30:00,
2013-01-12 00:36:00,55.5,55.2,30.22,SSE,151,1.0,3.0,99,0.00,,,0.00,Wunderground v.1.15,2013-01-12 05:36:00,
2013-01-12 00:42:00,55.4,55.1,30.22,SW,223,1.0,3.0,99,0.00,,,0.01,Wunderground v.1.15,2013-01-12 05:42:00,
2013-01-12 00:48:00,55.4,55.1,30.22,SSW,205,1.0,3.0,99,0.00,,,0.01,Wunderground v.1.15,2013-01-12 05:48:00,
2013-01-12 00:54:00,55.4,55.1,30.22,SSW,200,1.0,2.0,99,0.00,,,0.01,Wunderground v.1.15,2013-01-12 05:54:00,
2013-01-12 01:00:00,55.4,55.1,30.22,SW,219,1.0,2.0,99,0.00,,,0.01,Wunderground v.1.15,2013-01-12 06:00:00,
2013-01-12 01:06:00,55.3,55.0,30.22,SSE,149,2.0,3.0,99,0.00,,,0.01,Wunderground v.1.15,2013-01-12 06:06:00,
2013-01-12 01:12:00,55.3,55.0,30.22,SE,139,1.0,1.0,99,0.00,,,0.01,Wunderground v.1.15,2013-01-12 06:12:00,
2013-01-12 01:18:00,55.3,55.0,30.21,SW,215,1.0,3.0,99,0.00,,,0.01,Wunderground v.1.15,2013-01-12 06:18:00,
2013-01-12 01:24:00,55.2,54.9,30.21,SW,219,1.0,3.0,99,0.00,,,0.01,Wunderground v.1.15,2013-01-12 06:24:00,
2013-01-12 01:30:00,55.2,54.9,30.21,SW,219,2.0,2.0,99,0.00,,,0.01,Wunderground v.1.15,2013-01-12 06:30:00,
2013-01-12 01:36:00,55.3,55.0,30.21,SW,225,1.0,3.0,99,0.00,,,0.01,Wunderground v.1.15,2013-01-12 06:36:00,
2013-01-12 01:42:00,55.3,55.0,30.21,West,278,1.0,1.0,99,0.00,,,0.01,Wunderground v.1.15,2013-01-12 06:42:00,
2013-01-12 01:48:00,55.3,55.0,30.21,SSW,201,0.0,1.0,99,0.00,,,0.01,Wunderground v.1.15,2013-01-12 06:48:00,
2013-01-12 01:54:00,55.3,55.0,30.22,SSE,159,0.0,1.0,99,0.00,,,0.01,Wunderground v.1.15,2013-01-12 06:54:00,
2013-01-12 02:00:00,55.4,55.1,30.22,East,81,0.0,0.0,99,0.00,,,0.01,Wunderground v.1.15,2013-01-12 07:00:00,
2013-01-12 02:06:00,55.5,55.5,30.22,SW,229,0.0,2.0,100,0.00,,,0.01,Wunderground v.1.15,2013-01-12 07:06:00,
2013-01-12 02:12:00,55.7,55.7,30.22,SE,137,1.0,1.0,100,0.00,,,0.01,Wunderground v.1.15,2013-01-12 07:12:00,
2013-01-12 02:18:00,55.6,55.6,30.22,SW,225,1.0,1.0,100,0.00,,,0.01,Wunderground v.1.15,2013-01-12 07:18:00,
2013-01-12 02:24:00,55.5,55.5,30.22,SW,215,1.0,1.0,100,0.00,,,0.01,Wunderground v.1.15,2013-01-12 07:24:00,
2013-01-12 02:30:00,55.6,55.6,30.22,South,170,1.0,1.0,100,0.00,,,0.01,Wunderground v.1.15,2013-01-12 07:30:00,
2013-01-12 02:36:00,55.7,55.7,30.22,SSW,204,1.0,1.0,100,0.00,,,0.01,Wunderground v.1.15,2013-01-12 07:36:00,
2013-01-12 02:42:00,55.8,55.8,30.22,SSW,197,1.0,1.0,100,0.00,,,0.01,Wunderground v.1.15,2013-01-12 07:42:00,
2013-01-12 02:48:00,55.8,55.8,30.22,SSW,195,2.0,4.0,100,0.00,,,0.01,Wunderground v.1.15,2013-01-12 07:48:00,
2013-01-12 02:54:00,55.6,55.6,30.22,SSW,211,2.0,2.0,100,0.00,,,0.01,Wunderground v.1.15,2013-01-12 07:54:00,
2013-01-12 03:00:00,55.7,55.7,30.22,SSW,195,2.0,2.0,100,0.00,,,0.01,Wunderground v.1.15,2013-01-12 08:00:00,
2013-01-12 03:06:00,55.7,55.7,30.22,SSW,203,2.0,2.0,100,0.00,,,0.01,Wunderground v.1.15,2013-01-12 08:06:00,
2013-01-12 03:12:00,55.6,55.6,30.21,South,191,1.0,2.0,100,0.00,,,0.01,Wunderground v.1.15,2013-01-12 08:12:00,
2013-01-12 03:18:00,55.7,55.7,30.21,SSW,211,2.0,4.0,100,0.00,,,0.01,Wunderground v.1.15,2013-01-12 08:18:00,
2013-01-12 03:24:00,55.7,55.7,30.21,SSW,194,2.0,2.0,100,0.00,,,0.01,Wunderground v.1.15,2013-01-12 08:24:00,
2013-01-12 03:30:00,55.7,55.7,30.21,SSE,167,2.0,2.0,100,0.00,,,0.01,Wunderground v.1.15,2013-01-12 08:30:00,
2013-01-12 03:36:00,55.7,55.7,30.21,SW,217,1.0,2.0,100,0.00,,,0.01,Wunderground v.1.15,2013-01-12 08:36:00,
2013-01-12 03:42:00,55.6,55.6,30.21,SSE,166,1.0,1.0,100,0.00,,,0.01,Wunderground v.1.15,2013-01-12 08:42:00,
2013-01-12 03:48:00,55.7,55.7,30.21,SW,224,1.0,2.0,100,0.00,,,0.01,Wunderground v.1.15,2013-01-12 08:48:00,
2013-01-12 03:54:00,55.7,55.7,30.20,SSW,210,1.0,2.0,100,0.00,,,0.01,Wunderground v.1.15,2013-01-12 08:54:00,
2013-01-12 04:00:00,55.6,55.6,30.20,SW,215,2.0,2.0,100,0.00,,,0.01,Wunderground v.1.15,2013-01-12 09:00:00,
2013-01-12 04:06:00,55.7,55.7,30.20,SSW,211,1.0,4.0,100,0.00,,,0.01,Wunderground v.1.15,2013-01-12 09:06:00,
2013-01-12 04:12:00,55.8,55.8,30.20,WSW,245,2.0,3.0,100,0.00,,,0.02,Wunderground v.1.15,2013-01-12 09:12:00,
2013-01-12 04:18:00,55.8,55.8,30.20,SW,222,1.0,3.0,100,0.00,,,0.02,Wunderground v.1.15,2013-01-12 09:18:00,
2013-01-12 04:24:00,55.7,55.7,30.20,SSW,207,1.0,2.0,100,0.00,,,0.02,Wunderground v.1.15,2013-01-12 09:24:00,
2013-01-12 04:30:00,55.8,55.8,30.20,SSW,207,1.0,2.0,100,0.00,,,0.02,Wunderground v.1.15,2013-01-12 09:30:00,
2013-01-12 04:36:00,55.8,55.8,30.20,ESE,120,1.0,2.0,100,0.00,,,0.02,Wunderground v.1.15,2013-01-12 09:36:00,
2013-01-12 04:42:00,55.8,55.8,30.20,SE,139,1.0,1.0,100,0.00,,,0.02,Wunderground v.1.15,2013-01-12 09:42:00,
2013-01-12 04:48:00,55.8,55.8,30.20,SW,222,1.0,1.0,100,0.00,,,0.02,Wunderground v.1.15,2013-01-12 09:48:00,
2013-01-12 04:54:00,55.8,55.8,30.19,SSW,213,1.0,2.0,100,0.00,,,0.02,Wunderground v.1.15,2013-01-12 09:54:00,
2013-01-12 05:00:00,55.7,55.7,30.19,ESE,120,1.0,1.0,100,0.00,,,0.02,Wunderground v.1.15,2013-01-12 10:00:00,
2013-01-12 05:06:00,55.7,55.7,30.19,SW,217,1.0,1.0,100,0.00,,,0.02,Wunderground v.1.15,2013-01-12 10:06:00,
2013-01-12 05:12:00,55.7,55.7,30.20,SSE,163,0.0,1.0,100,0.00,,,0.02,Wunderground v.1.15,2013-01-12 10:12:00,
2013-01-12 05:18:00,55.7,55.7,30.20,WSW,246,1.0,1.0,100,0.00,,,0.02,Wunderground v.1.15,2013-01-12 10:18:00,
2013-01-12 05:24:00,55.7,55.7,30.19,SW,233,1.0,2.0,100,0.00,,,0.02,Wunderground v.1.15,2013-01-12 10:24:00,
2013-01-12 05:30:00,55.7,55.7,30.19,SSE,162,1.0,1.0,100,0.00,,,0.02,Wunderground v.1.15,2013-01-12 10:30:00,
2013-01-12 05:36:00,55.7,55.7,30.20,SSW,210,1.0,2.0,100,0.00,,,0.02,Wunderground v.1.15,2013-01-12 10:36:00,
2013-01-12 05:42:00,55.7,55.7,30.20,SW,218,2.0,2.0,100,0.00,,,0.02,Wunderground v.1.15,2013-01-12 10:42:00,
2013-01-12 05:48:00,55.7,55.7,30.20,SSW,205,1.0,2.0,100,0.00,,,0.02,Wunderground v.1.15,2013-01-12 10:48:00,
2013-01-12 05:54:00,55.5,55.5,30.20,SW,219,1.0,2.0,100,0.00,,,0.02,Wunderground v.1.15,2013-01-12 10:54:00,
2013-01-12 06:00:00,55.5,55.5,30.20,South,180,1.0,1.0,100,0.00,,,0.02,Wunderground v.1.15,2013-01-12 11:00:00,
2013-01-12 06:06:00,55.5,55.5,30.20,SSW,205,1.0,4.0,100,0.00,,,0.02,Wunderground v.1.15,2013-01-12 11:06:00,
2013-01-12 06:12:00,55.6,55.6,30.20,SE,142,2.0,2.0,100,0.00,,,0.02,Wunderground v.1.15,2013-01-12 11:12:00,
2013-01-12 06:18:00,55.6,55.3,30.20,SSW,207,1.0,2.0,99,0.00,,,0.02,Wunderground v.1.15,2013-01-12 11:18:00,
2013-01-12 06:24:00,55.6,55.3,30.20,South,188,1.0,1.0,99,0.00,,,0.02,Wunderground v.1.15,2013-01-12 11:24:00,
2013-01-12 06:30:00,55.7,55.4,30.21,South,170,2.0,2.0,99,0.00,,,0.02,Wunderground v.1.15,2013-01-12 11:30:00,
2013-01-12 06:36:00,55.8,55.2,30.21,SW,236,1.0,2.0,98,0.00,,,0.02,Wunderground v.1.15,2013-01-12 11:36:00,
2013-01-12 06:42:00,55.8,55.0,30.21,WSW,243,2.0,2.0,97,0.00,,,0.02,Wunderground v.1.15,2013-01-12 11:42:00,
2013-01-12 06:48:00,55.9,55.1,30.21,SW,222,1.0,2.0,97,0.00,,,0.02,Wunderground v.1.15,2013-01-12 11:48:00,
2013-01-12 06:54:00,56.0,54.9,30.21,South,187,1.0,2.0,96,0.00,,,0.02,Wunderground v.1.15,2013-01-12 11:54:00,
2013-01-12 07:00:00,56.3,54.9,30.21,SSW,210,2.0,2.0,95,0.00,,,0.02,Wunderground v.1.15,2013-01-12 12:00:00,
2013-01-12 07:06:00,56.3,54.9,30.21,SSW,207,2.0,3.0,95,0.00,,,0.02,Wunderground v.1.15,2013-01-12 12:06:00,
2013-01-12 07:12:00,56.1,55.0,30.22,SSW,203,2.0,2.0,96,0.00,,,0.02,Wunderground v.1.15,2013-01-12 12:12:00,
2013-01-12 07:18:00,56.0,54.9,30.22,SSE,160,1.0,2.0,96,0.00,,,0.02,Wunderground v.1.15,2013-01-12 12:18:00,
2013-01-12 07:24:00,55.7,54.6,30.22,SW,225,1.0,1.0,96,0.00,,,0.02,Wunderground v.1.15,2013-01-12 12:24:00,
2013-01-12 07:30:00,55.9,54.8,30.22,SW,224,1.0,2.0,96,0.00,,,0.02,Wunderground v.1.15,2013-01-12 12:30:00,
2013-01-12 07:36:00,55.6,54.5,30.22,SSW,210,2.0,2.0,96,0.00,,,0.02,Wunderground v.1.15,2013-01-12 12:36:00,
2013-01-12 07:42:00,55.7,54.6,30.22,SSE,153,2.0,4.0,96,0.00,,,0.02,Wunderground v.1.15,2013-01-12 12:42:00,
2013-01-12 07:48:00,55.9,54.8,30.22,SW,223,2.0,4.0,96,0.00,,,0.02,Wunderground v.1.15,2013-01-12 12:48:00,
2013-01-12 07:54:00,56.1,54.7,30.22,SSW,212,2.0,3.0,95,0.00,,,0.02,Wunderground v.1.15,2013-01-12 12:54:00,
2013-01-12 08:00:00,55.9,54.5,30.22,SSW,211,2.0,3.0,95,0.00,,,0.02,Wunderground v.1.15,2013-01-12 13:00:00,
2013-01-12 08:06:00,55.9,54.5,30.23,SSW,209,2.0,3.0,95,0.00,,,0.02,Wunderground v.1.15,2013-01-12 13:06:00,
2013-01-12 08:12:00,56.2,54.8,30.23,SSW,207,3.0,3.0,95,0.00,,,0.02,Wunderground v.1.15,2013-01-12 13:12:00,
2013-01-12 08:18:00,56.2,54.8,30.23,SW,214,2.0,3.0,95,0.00,,,0.02,Wunderground v.1.15,2013-01-12 13:18:00,
2013-01-12 08:24:00,56.4,54.7,30.23,SSW,210,3.0,3.0,94,0.00,,,0.02,Wunderground v.1.15,2013-01-12 13:24:00,
2013-01-12 08:30:00,56.6,54.9,30.23,South,191,2.0,2.0,94,0.00,,,0.02,Wunderground v.1.15,2013-01-12 13:30:00,
2013-01-12 08:36:00,56.7,55.0,30.24,SSW,200,2.0,3.0,94,0.00,,,0.02,Wunderground v.1.15,2013-01-12 13:36:00,
2013-01-12 08:42:00,57.0,55.0,30.24,WSW,238,2.0,3.0,93,0.00,,,0.02,Wunderground v.1.15,2013-01-12 13:42:00,
2013-01-12 08:48:00,57.1,55.1,30.24,SW,215,2.0,3.0,93,0.00,,,0.02,Wunderground v.1.15,2013-01-12 13:48:00,
2013-01-12 08:54:00,57.2,55.2,30.24,SW,214,2.0,4.0,93,0.00,,,0.02,Wunderground v.1.15,2013-01-12 13:54:00,
2013-01-12 09:00:00,57.2,55.2,30.25,SW,215,2.0,2.0,93,0.00,,,0.02,Wunderground v.1.15,2013-01-12 14:00:00,
2013-01-12 09:06:00,57.4,55.4,30.25,SSW,210,1.0,2.0,93,0.00,,,0.02,Wunderground v.1.15,2013-01-12 14:06:00,
2013-01-12 09:12:00,57.5,55.5,30.25,North,352,0.0,1.0,93,0.00,,,0.02,Wunderground v.1.15,2013-01-12 14:12:00,
2013-01-12 09:18:00,57.6,55.6,30.25,South,177,0.0,2.0,93,0.00,,,0.02,Wunderground v.1.15,2013-01-12 14:18:00,
2013-01-12 09:24:00,57.6,55.9,30.25,SSE,148,0.0,1.0,94,0.00,,,0.02,Wunderground v.1.15,2013-01-12 14:24:00,
2013-01-12 09:30:00,57.6,55.9,30.25,SE,143,1.0,2.0,94,0.00,,,0.02,Wunderground v.1.15,2013-01-12 14:30:00,
2013-01-12 09:36:00,57.7,55.7,30.25,East,86,1.0,2.0,93,0.00,,,0.02,Wunderground v.1.15,2013-01-12 14:36:00,
2013-01-12 09:42:00,57.6,55.6,30.25,SW,228,1.0,1.0,93,0.00,,,0.02,Wunderground v.1.15,2013-01-12 14:42:00,
2013-01-12 09:48:00,57.8,55.8,30.25,SE,124,1.0,1.0,93,0.00,,,0.02,Wunderground v.1.15,2013-01-12 14:48:00,
2013-01-12 09:54:00,57.8,55.5,30.26,SE,130,1.0,1.0,92,0.00,,,0.02,Wunderground v.1.15,2013-01-12 14:54:00,
2013-01-12 10:00:00,57.9,55.6,30.25,ESE,118,0.0,1.0,92,0.00,,,0.02,Wunderground v.1.15,2013-01-12 15:00:00,
2013-01-12 10:06:00,58.3,55.7,30.25,SE,125,1.0,1.0,91,0.00,,,0.02,Wunderground v.1.15,2013-01-12 15:06:00,
2013-01-12 10:12:00,59.0,56.7,30.25,ESE,112,0.0,1.0,92,0.00,,,0.02,Wunderground v.1.15,2013-01-12 15:12:00,
2013-01-12 10:18:00,59.7,57.1,30.25,SE,142,0.0,1.0,91,0.00,,,0.02,Wunderground v.1.15,2013-01-12 15:18:00,
2013-01-12 10:24:00,60.0,57.4,30.25,SSW,198,0.0,1.0,91,0.00,,,0.02,Wunderground v.1.15,2013-01-12 15:24:00,
2013-01-12 10:30:00,60.1,57.2,30.25,SW,226,1.0,1.0,90,0.00,,,0.02,Wunderground v.1.15,2013-01-12 15:30:00,
2013-01-12 10:36:00,60.2,56.9,30.25,SE,134,1.0,1.0,89,0.00,,,0.02,Wunderground v.1.15,2013-01-12 15:36:00,
2013-01-12 10:42:00,60.2,56.6,30.25,WSW,246,0.0,1.0,88,0.00,,,0.02,Wunderground v.1.15,2013-01-12 15:42:00,
2013-01-12 10:48:00,60.3,56.7,30.25,SSW,201,0.0,2.0,88,0.00,,,0.02,Wunderground v.1.15,2013-01-12 15:48:00,
2013-01-12 10:54:00,60.2,56.6,30.24,West,273,1.0,1.0,88,0.00,,,0.02,Wunderground v.1.15,2013-01-12 15:54:00,
2013-01-12 11:00:00,60.4,56.8,30.24,SW,214,1.0,1.0,88,0.00,,,0.02,Wunderground v.1.15,2013-01-12 16:00:00,
2013-01-12 11:06:00,60.6,56.7,30.24,WNW,298,1.0,1.0,87,0.00,,,0.02,Wunderground v.1.15,2013-01-12 16:06:00,
2013-01-12 11:12:00,60.7,56.5,30.23,South,175,1.0,1.0,86,0.00,,,0.02,Wunderground v.1.15,2013-01-12 16:12:00,
2013-01-12 11:18:00,60.9,56.7,30.24,SW,215,2.0,3.0,86,0.00,,,0.02,Wunderground v.1.15,2013-01-12 16:18:00,
2013-01-12 11:24:00,61.0,57.1,30.23,ESE,108,2.0,5.0,87,0.00,,,0.02,Wunderground v.1.15,2013-01-12 16:24:00,
2013-01-12 11:30:00,60.9,56.7,30.23,South,176,2.0,2.0,86,0.00,,,0.02,Wunderground v.1.15,2013-01-12 16:30:00,
2013-01-12 11:36:00,61.1,56.9,30.22,SSE,162,2.0,3.0,86,0.00,,,0.02,Wunderground v.1.15,2013-01-12 16:36:00,
2013-01-12 11:42:00,61.3,57.7,30.22,SE,126,1.0,1.0,88,0.00,,,0.02,Wunderground v.1.15,2013-01-12 16:42:00,
2013-01-12 11:48:00,61.1,56.2,30.21,WSW,253,2.0,5.0,84,0.00,,,0.02,Wunderground v.1.15,2013-01-12 16:48:00,
2013-01-12 11:54:00,61.4,56.5,30.21,WSW,239,2.0,7.0,84,0.00,,,0.02,Wunderground v.1.15,2013-01-12 16:54:00,
2013-01-12 12:00:00,62.4,57.5,30.20,East,79,2.0,2.0,84,0.00,,,0.02,Wunderground v.1.15,2013-01-12 17:00:00,
2013-01-12 12:06:00,63.4,57.1,30.20,NNE,24,1.0,3.0,80,0.00,,,0.02,Wunderground v.1.15,2013-01-12 17:06:00,
2013-01-12 12:12:00,63.6,58.7,30.19,NE,54,2.0,2.0,84,0.00,,,0.02,Wunderground v.1.15,2013-01-12 17:12:00,
2013-01-12 12:18:00,64.8,58.8,30.19,ENE,77,2.0,2.0,81,0.00,,,0.02,Wunderground v.1.15,2013-01-12 17:18:00,
2013-01-12 12:24:00,65.6,59.6,30.19,ESE,122,1.0,1.0,81,0.00,,,0.02,Wunderground v.1.15,2013-01-12 17:24:00,
2013-01-12 12:30:00,65.6,57.8,30.18,SW,235,2.0,5.0,76,0.00,,,0.02,Wunderground v.1.15,2013-01-12 17:30:00,
2013-01-12 12:36:00,64.9,57.2,30.18,SW,225,3.0,5.0,76,0.00,,,0.02,Wunderground v.1.15,2013-01-12 17:36:00,
2013-01-12 12:42:00,64.7,57.0,30.18,WSW,248,2.0,4.0,76,0.00,,,0.02,Wunderground v.1.15,2013-01-12 17:42:00,
2013-01-12 12:48:00,64.7,57.3,30.18,SSW,205,2.0,5.0,77,0.00,,,0.02,Wunderground v.1.15,2013-01-12 17:48:00,
2013-01-12 12:54:00,64.8,57.8,30.18,South,184,2.0,2.0,78,0.00,,,0.02,Wunderground v.1.15,2013-01-12 17:54:00,
2013-01-12 13:00:00,64.9,57.5,30.17,South,188,2.0,2.0,77,0.00,,,0.02,Wunderground v.1.15,2013-01-12 18:00:00,
2013-01-12 13:06:00,64.1,56.7,30.17,SW,223,3.0,5.0,77,0.00,,,0.02,Wunderground v.1.15,2013-01-12 18:06:00,
2013-01-12 13:12:00,63.8,56.8,30.17,SSW,204,3.0,3.0,78,0.00,,,0.02,Wunderground v.1.15,2013-01-12 18:12:00,
2013-01-12 13:18:00,63.6,55.9,30.17,SSW,203,3.0,5.0,76,0.00,,,0.02,Wunderground v.1.15,2013-01-12 18:18:00,
2013-01-12 13:24:00,63.6,55.9,30.17,SW,223,3.0,6.0,76,0.00,,,0.02,Wunderground v.1.15,2013-01-12 18:24:00,
2013-01-12 13:30:00,63.5,55.8,30.17,SW,231,3.0,10.0,76,0.00,,,0.02,Wunderground v.1.15,2013-01-12 18:30:00,
2013-01-12 13:36:00,63.4,56.8,30.17,SSW,204,3.0,10.0,79,0.00,,,0.02,Wunderground v.1.15,2013-01-12 18:36:00,
2013-01-12 13:42:00,63.2,56.6,30.17,SSW,211,2.0,2.0,79,0.00,,,0.02,Wunderground v.1.15,2013-01-12 18:42:00,
2013-01-12 13:48:00,63.1,55.0,30.17,SW,226,2.0,3.0,75,0.00,,,0.02,Wunderground v.1.15,2013-01-12 18:48:00,
2013-01-12 13:54:00,63.0,54.9,30.17,SE,126,2.0,3.0,75,0.00,,,0.02,Wunderground v.1.15,2013-01-12 18:54:00,
2013-01-12 14:00:00,62.9,55.2,30.16,SE,129,2.0,2.0,76,0.00,,,0.02,Wunderground v.1.15,2013-01-12 19:00:00,
2013-01-12 14:06:00,63.5,55.4,30.17,SSW,204,2.0,3.0,75,0.00,,,0.02,Wunderground v.1.15,2013-01-12 19:06:00,
2013-01-12 14:12:00,64.5,56.4,30.16,SE,134,2.0,3.0,75,0.00,,,0.02,Wunderground v.1.15,2013-01-12 19:12:00,
2013-01-12 14:18:00,65.6,56.3,30.16,SSW,207,1.0,3.0,72,0.00,,,0.02,Wunderground v.1.15,2013-01-12 19:18:00,
2013-01-12 14:24:00,65.9,54.6,30.16,ESE,113,2.0,3.0,67,0.00,,,0.02,Wunderground v.1.15,2013-01-12 19:24:00,
2013-01-12 14:30:00,66.0,55.9,30.16,SSE,156,3.0,3.0,70,0.00,,,0.02,Wunderground v.1.15,2013-01-12 19:30:00,
2013-01-12 14:36:00,66.0,55.1,30.16,SW,226,1.0,3.0,68,0.00,,,0.02,Wunderground v.1.15,2013-01-12 19:36:00,
2013-01-12 14:42:00,65.9,55.4,30.16,SE,129,2.0,2.0,69,0.00,,,0.02,Wunderground v.1.15,2013-01-12 19:42:00,
2013-01-12 14:48:00,65.8,54.9,30.16,SSW,208,1.0,2.0,68,0.00,,,0.02,Wunderground v.1.15,2013-01-12 19:48:00,
2013-01-12 14:54:00,65.5,55.8,30.16,SE,137,1.0,1.0,71,0.00,,,0.02,Wunderground v.1.15,2013-01-12 19:54:00,
2013-01-12 15:00:00,65.7,55.6,30.15,SSE,163,1.0,1.0,70,0.00,,,0.02,Wunderground v.1.15,2013-01-12 20:00:00,
2013-01-12 15:06:00,65.9,54.6,30.15,SE,136,0.0,1.0,67,0.00,,,0.02,Wunderground v.1.15,2013-01-12 20:06:00,
2013-01-12 15:12:00,66.1,55.6,30.15,SE,139,0.0,1.0,69,0.00,,,0.02,Wunderground v.1.15,2013-01-12 20:12:00,
2013-01-12 15:18:00,66.3,55.4,30.15,SE,143,1.0,1.0,68,0.00,,,0.02,Wunderground v.1.15,2013-01-12 20:18:00,
2013-01-12 15:24:00,66.0,55.5,30.15,SE,142,1.0,4.0,69,0.00,,,0.02,Wunderground v.1.15,2013-01-12 20:24:00,
2013-01-12 15:30:00,65.4,55.0,30.15,South,187,1.0,1.0,69,0.00,,,0.02,Wunderground v.1.15,2013-01-12 20:30:00,
2013-01-12 15:36:00,65.0,55.4,30.15,ESE,123,1.0,1.0,71,0.00,,,0.02,Wunderground v.1.15,2013-01-12 20:36:00,
2013-01-12 15:42:00,64.5,55.7,30.15,SW,214,1.0,2.0,73,0.00,,,0.02,Wunderground v.1.15,2013-01-12 20:42:00,
2013-01-12 15:48:00,64.1,55.6,30.15,SSW,210,1.0,2.0,74,0.00,,,0.02,Wunderground v.1.15,2013-01-12 20:48:00,
2013-01-12 15:54:00,64.0,55.5,30.15,NE,39,0.0,1.0,74,0.00,,,0.02,Wunderground v.1.15,2013-01-12 20:54:00,
2013-01-12 16:00:00,64.1,54.9,30.15,SSW,207,1.0,1.0,72,0.00,,,0.02,Wunderground v.1.15,2013-01-12 21:00:00,
2013-01-12 16:06:00,64.0,55.2,30.15,SW,222,1.0,1.0,73,0.00,,,0.02,Wunderground v.1.15,2013-01-12 21:06:00,
2013-01-12 16:12:00,63.8,55.4,30.15,SSW,212,1.0,3.0,74,0.00,,,0.02,Wunderground v.1.15,2013-01-12 21:12:00,
2013-01-12 16:18:00,63.4,55.3,30.15,SSW,211,1.0,3.0,75,0.00,,,0.02,Wunderground v.1.15,2013-01-12 21:18:00,
2013-01-12 16:24:00,63.2,55.1,30.15,NNE,18,1.0,2.0,75,0.00,,,0.02,Wunderground v.1.15,2013-01-12 21:24:00,
2013-01-12 16:30:00,63.0,55.3,30.15,SSW,205,1.0,1.0,76,0.00,,,0.02,Wunderground v.1.15,2013-01-12 21:30:00,
2013-01-12 16:36:00,62.7,55.0,30.14,South,191,1.0,1.0,76,0.00,,,0.02,Wunderground v.1.15,2013-01-12 21:36:00,
2013-01-12 16:42:00,62.3,55.4,30.14,SW,214,1.0,3.0,78,0.00,,,0.02,Wunderground v.1.15,2013-01-12 21:42:00,
2013-01-12 16:48:00,62.1,55.2,30.14,SSW,203,2.0,3.0,78,0.00,,,0.02,Wunderground v.1.15,2013-01-12 21:48:00,
2013-01-12 16:54:00,61.9,55.3,30.14,SW,214,2.0,2.0,79,0.00,,,0.02,Wunderground v.1.15,2013-01-12 21:54:00,
2013-01-12 17:00:00,61.6,55.4,30.14,SW,225,2.0,2.0,80,0.00,,,0.02,Wunderground v.1.15,2013-01-12 22:00:00,
2013-01-12 17:06:00,61.4,55.5,30.14,SSW,207,2.0,2.0,81,0.00,,,0.02,Wunderground v.1.15,2013-01-12 22:06:00,
2013-01-12 17:12:00,61.2,55.7,30.13,SW,223,2.0,3.0,82,0.00,,,0.02,Wunderground v.1.15,2013-01-12 22:12:00,
2013-01-12 17:18:00,61.2,55.7,30.13,SW,219,3.0,3.0,82,0.00,,,0.02,Wunderground v.1.15,2013-01-12 22:18:00,
2013-01-12 17:24:00,60.9,55.7,30.13,SSW,212,2.0,3.0,83,0.00,,,0.02,Wunderground v.1.15,2013-01-12 22:24:00,
2013-01-12 17:30:00,60.7,55.5,30.12,SW,219,1.0,1.0,83,0.00,,,0.02,Wunderground v.1.15,2013-01-12 22:30:00,
2013-01-12 17:36:00,60.5,55.6,30.13,SSW,212,1.0,2.0,84,0.00,,,0.02,Wunderground v.1.15,2013-01-12 22:36:00,
2013-01-12 17:42:00,60.4,55.9,30.12,SW,236,1.0,2.0,85,0.00,,,0.02,Wunderground v.1.15,2013-01-12 22:42:00,
2013-01-12 17:48:00,60.3,55.8,30.13,South,184,2.0,3.0,85,0.00,,,0.02,Wunderground v.1.15,2013-01-12 22:48:00,
2013-01-12 17:54:00,60.1,55.9,30.13,SW,214,1.0,2.0,86,0.00,,,0.02,Wunderground v.1.15,2013-01-12 22:54:00,
2013-01-12 18:02:00,59.9,55.7,30.13,WSW,238,1.0,2.0,86,0.00,,,0.02,Wunderground v.1.15,2013-01-12 23:02:00,
2013-01-12 18:08:00,60.0,55.8,30.13,SSW,193,1.0,2.0,86,0.00,,,0.02,Wunderground v.1.15,2013-01-12 23:08:00,
2013-01-12 18:14:00,59.7,55.5,30.12,SW,219,1.0,2.0,86,0.00,,,0.02,Wunderground v.1.15,2013-01-12 23:14:00,
2013-01-12 18:20:00,59.1,55.2,30.12,SW,228,1.0,1.0,87,0.00,,,0.02,Wunderground v.1.15,2013-01-12 23:20:00,
2013-01-12 18:26:00,58.9,55.4,30.12,SW,236,1.0,1.0,88,0.00,,,0.02,Wunderground v.1.15,2013-01-12 23:26:00,
2013-01-12 18:32:00,58.8,54.6,30.13,SW,236,1.0,1.0,86,0.00,,,0.02,Wunderground v.1.15,2013-01-12 23:32:00,
2013-01-12 18:38:00,58.8,54.9,30.13,SW,223,0.0,1.0,87,0.00,,,0.02,Wunderground v.1.15,2013-01-12 23:38:00,
2013-01-12 18:44:00,58.9,55.0,30.12,SW,218,1.0,2.0,87,0.00,,,0.02,Wunderground v.1.15,2013-01-12 23:44:00,
2013-01-12 18:50:00,58.7,54.8,30.13,SW,218,1.0,2.0,87,0.00,,,0.02,Wunderground v.1.15,2013-01-12 23:50:00,
2013-01-12 18:56:00,58.7,53.9,30.13,SSW,211,2.0,2.0,84,0.00,,,0.02,Wunderground v.1.15,2013-01-12 23:56:00,
2013-01-12 19:02:00,58.6,53.1,30.12,SSW,205,2.0,2.0,82,0.00,,,0.02,Wunderground v.1.15,2013-01-13 00:02:00,
2013-01-12 19:08:00,58.3,52.8,30.12,SW,218,2.0,2.0,82,0.00,,,0.02,Wunderground v.1.15,2013-01-13 00:08:00,
2013-01-12 19:14:00,58.2,51.7,30.12,SSW,205,2.0,2.0,79,0.00,,,0.02,Wunderground v.1.15,2013-01-13 00:14:00,
2013-01-12 19:20:00,58.3,51.1,30.12,SSW,209,2.0,2.0,77,0.00,,,0.02,Wunderground v.1.15,2013-01-13 00:20:00,
2013-01-12 19:26:00,58.2,51.0,30.13,SW,223,1.0,2.0,77,0.00,,,0.02,Wunderground v.1.15,2013-01-13 00:26:00,
2013-01-12 19:32:00,57.6,50.4,30.12,SW,226,1.0,1.0,77,0.00,,,0.02,Wunderground v.1.15,2013-01-13 00:32:00,
2013-01-12 19:38:00,57.6,50.8,30.12,SSW,211,1.0,2.0,78,0.00,,,0.02,Wunderground v.1.15,2013-01-13 00:38:00,
2013-01-12 19:44:00,57.6,51.1,30.12,SW,235,2.0,2.0,79,0.00,,,0.02,Wunderground v.1.15,2013-01-13 00:44:00,
2013-01-12 19:50:00,57.3,50.8,30.12,SSW,212,1.0,1.0,79,0.00,,,0.02,Wunderground v.1.15,2013-01-13 00:50:00,
2013-01-12 19:56:00,57.2,51.4,30.12,SW,222,1.0,2.0,81,0.00,,,0.02,Wunderground v.1.15,2013-01-13 00:56:00,
2013-01-12 20:02:00,57.0,51.2,30.12,SW,219,1.0,2.0,81,0.00,,,0.02,Wunderground v.1.15,2013-01-13 01:02:00,
2013-01-12 20:08:00,56.8,51.4,30.12,SW,218,2.0,2.0,82,0.00,,,0.02,Wunderground v.1.15,2013-01-13 01:08:00,
2013-01-12 20:14:00,56.6,50.5,30.13,SSW,211,2.0,4.0,80,0.00,,,0.02,Wunderground v.1.15,2013-01-13 01:14:00,
2013-01-12 20:20:00,56.6,50.5,30.13,SSW,211,2.0,2.0,80,0.00,,,0.02,Wunderground v.1.15,2013-01-13 01:20:00,
2013-01-12 20:26:00,56.3,50.9,30.12,SSW,199,3.0,3.0,82,0.00,,,0.02,Wunderground v.1.15,2013-01-13 01:26:00,
2013-01-12 20:32:00,55.9,50.2,30.13,SSW,208,3.0,3.0,81,0.00,,,0.02,Wunderground v.1.15,2013-01-13 01:32:00,
2013-01-12 20:38:00,55.6,50.2,30.12,SW,222,2.0,3.0,82,0.00,,,0.02,Wunderground v.1.15,2013-01-13 01:38:00,
2013-01-12 20:44:00,55.0,49.9,30.13,SW,217,2.0,3.0,83,0.00,,,0.02,Wunderground v.1.15,2013-01-13 01:44:00,
2013-01-12 20:50:00,54.5,49.8,30.13,SW,219,1.0,1.0,84,0.00,,,0.02,Wunderground v.1.15,2013-01-13 01:50:00,
2013-01-12 20:56:00,54.2,48.8,30.13,ESE,122,2.0,4.0,82,0.00,,,0.02,Wunderground v.1.15,2013-01-13 01:56:00,
2013-01-12 21:02:00,53.9,48.2,30.13,SSW,205,3.0,3.0,81,0.00,,,0.02,Wunderground v.1.15,2013-01-13 02:02:00,
2013-01-12 21:08:00,53.6,48.6,30.12,SSW,209,2.0,3.0,83,0.00,,,0.02,Wunderground v.1.15,2013-01-13 02:08:00,
2013-01-12 21:14:00,53.6,48.2,30.12,SSW,205,2.0,4.0,82,0.00,,,0.02,Wunderground v.1.15,2013-01-13 02:14:00,
2013-01-12 21:20:00,53.5,48.1,30.12,SW,215,3.0,3.0,82,0.00,,,0.02,Wunderground v.1.15,2013-01-13 02:20:00,
2013-01-12 21:26:00,53.2,48.5,30.11,South,188,2.0,4.0,84,0.00,,,0.02,Wunderground v.1.15,2013-01-13 02:26:00,
2013-01-12 21:32:00,53.0,48.3,30.11,SW,227,3.0,4.0,84,0.00,,,0.02,Wunderground v.1.15,2013-01-13 02:32:00,
2013-01-12 21:38:00,52.8,48.4,30.11,SW,218,3.0,4.0,85,0.00,,,0.02,Wunderground v.1.15,2013-01-13 02:38:00,
2013-01-12 21:44:00,52.8,48.4,30.12,SSW,198,3.0,3.0,85,0.00,,,0.02,Wunderground v.1.15,2013-01-13 02:44:00,
2013-01-12 21:50:00,52.8,48.4,30.12,SSW,212,3.0,3.0,85,0.00,,,0.02,Wunderground v.1.15,2013-01-13 02:50:00,
2013-01-12 21:56:00,53.0,48.6,30.11,SW,215,3.0,6.0,85,0.00,,,0.02,Wunderground v.1.15,2013-01-13 02:56:00,
2013-01-12 22:02:00,53.1,48.7,30.11,SSW,209,3.0,3.0,85,0.00,,,0.02,Wunderground v.1.15,2013-01-13 03:02:00,
2013-01-12 22:08:00,52.9,48.5,30.11,SSW,212,3.0,4.0,85,0.00,,,0.02,Wunderground v.1.15,2013-01-13 03:08:00,
2013-01-12 22:14:00,52.9,48.5,30.11,SSW,204,2.0,3.0,85,0.00,,,0.02,Wunderground v.1.15,2013-01-13 03:14:00,
2013-01-12 22:20:00,52.5,48.4,30.11,SSW,198,2.0,2.0,86,0.00,,,0.02,Wunderground v.1.15,2013-01-13 03:20:00,
2013-01-12 22:26:00,52.4,48.6,30.11,SW,221,2.0,3.0,87,0.00,,,0.02,Wunderground v.1.15,2013-01-13 03:26:00,
2013-01-12 22:32:00,52.6,48.5,30.11,SE,139,2.0,2.0,86,0.00,,,0.02,Wunderground v.1.15,2013-01-13 03:32:00,
2013-01-12 22:38:00,52.8,49.0,30.11,SSW,199,2.0,4.0,87,0.00,,,0.02,Wunderground v.1.15,2013-01-13 03:38:00,
2013-01-12 22:44:00,52.8,49.0,30.11,SSW,198,3.0,4.0,87,0.00,,,0.02,Wunderground v.1.15,2013-01-13 03:44:00,
2013-01-12 22:50:00,52.9,49.1,30.11,SW,219,3.0,3.0,87,0.00,,,0.02,Wunderground v.1.15,2013-01-13 03:50:00,
2013-01-12 22:56:00,52.9,49.1,30.11,SW,224,2.0,3.0,87,0.00,,,0.02,Wunderground v.1.15,2013-01-13 03:56:00,
2013-01-12 23:02:00,52.8,49.0,30.11,SSW,194,2.0,2.0,87,0.00,,,0.02,Wunderground v.1.15,2013-01-13 04:02:00,
2013-01-12 23:08:00,52.3,48.9,30.11,SSW,211,2.0,2.0,88,0.00,,,0.02,Wunderground v.1.15,2013-01-13 04:08:00,
2013-01-12 23:14:00,52.4,48.9,30.11,South,177,2.0,3.0,88,0.00,,,0.02,Wunderground v.1.15,2013-01-13 04:14:00,
2013-01-12 23:20:00,52.8,49.0,30.11,SW,217,3.0,3.0,87,0.00,,,0.02,Wunderground v.1.15,2013-01-13 04:20:00,
2013-01-12 23:26:00,52.6,48.8,30.10,SW,219,3.0,3.0,87,0.00,,,0.02,Wunderground v.1.15,2013-01-13 04:26:00,
2013-01-12 23:32:00,52.5,48.7,30.11,SW,236,3.0,3.0,87,0.00,,,0.02,Wunderground v.1.15,2013-01-13 04:32:00,
2013-01-12 23:38:00,52.6,49.1,30.10,SW,220,3.0,3.0,88,0.00,,,0.02,Wunderground v.1.15,2013-01-13 04:38:00,
2013-01-12 23:44:00,53.0,48.9,30.11,SSW,201,3.0,4.0,86,0.00,,,0.02,Wunderground v.1.15,2013-01-13 04:44:00,
2013-01-12 23:50:00,53.2,49.1,30.11,SSW,193,3.0,3.0,86,0.00,,,0.02,Wunderground v.1.15,2013-01-13 04:50:00,
2013-01-12 23:56:00,53.7,49.0,30.11,SW,222,3.0,5.0,84,0.00,,,0.02,Wunderground v.1.15,2013-01-13 04:56:00,